COSMOS 2501 (702K)

Last updated on Sun Sep 20 2026 00:03:20 GMT+0000 (Coordinated Universal Time)

1 40315U 14075A 26261.68330106 -.00000007 00000+0 00000+0 0 9990 2 40315 63.6167 187.1376 0021997 209.8790 150.0114 2.13101498 91843
UTC large
Height (km)
Speed (km/s)
/
Latitude / Longitude
Inclination (degrees)
Orbital Period (minutes)
Azimuth
Elevation
Range (km)
Doppler Factor

Next 0 passes for location: London (51.5072 / 0.1276)

No passes found over London.
COSMOS 2501 (702K)